Wind_Speed
25 25 26 26 25 26 26 26 26 25 25 24 24 24 24 24 24 24 24 25 25 26 26 25 24 22 21 20 18 17 16 15 14 13 12 11 11 10 10 9 9 8 8 7 7 5 4 3 3 2 2 3 3 4 4 4 5 4 4 4 4 4 3 2 2 3 3 3 3 2 2 2 2 2 2 3 4 5 5 5 5 5 5 5 5
25 26 26 26 27 27 27 27 26 26 25 24 24 25 25 24 25 24 25 25 26 26 26 25 25 23 22 21 19 18 16 16 14 13 12 11 10 10 9 8 8 8 7 7 6 5 3 3 3 3 3 3 4 4 4 4 5 4 4 4 4 4 3 2 2 2 2 3 3 3 2 2 2 2 3 3 4 5 5 5 5 5 5 5 5
26 27 27 27 27 27 28 27 26 26 25 25 25 25 25 25 25 25 25 25 26 26 25 25 25 24 22 21 19 17 16 15 15 14 12 11 11 10 9 9 8 8 7 6 5 5 4 3 3 3 4 4 4 4 4 5 5 4 4 4 4 3 3 2 2 2 2 2 3 3 3 2 2 2 3 4 4 5 5 5 5 5 5 5 5
28 28 28 28 28 29 28 28 27 26 26 26 26 26 26 26 26 26 26 26 26 25 25 25 25 24 22 20 18 17 15 14 14 14 13 12 11 10 9 9 9 8 7 7 6 5 4 4 4 5 5 5 5 5 5 5 5 4 4 4 4 3 3 3 2 2 2 2 2 2 2 3 2 2 3 3 4 5 6 5 5 5 5 5 5
29 29 29 29 29 29 29 28 27 27 27 27 27 26 26 26 26 26 26 27 26 25 25 25 25 24 21 19 17 16 14 13 13 14 14 12 11 10 10 9 9 9 9 8 7 6 5 5 5 5 6 6 6 6 6 5 5 5 5 4 4 3 3 3 2 2 2 1 1 2 2 3 3 2 2 3 4 5 6 6 6 6 6 5 5
29 29 29 29 29 30 29 28 28 28 27 27 27 26 26 25 26 26 27 27 26 26 25 25 24 22 20 19 16 15 14 13 13 13 13 13 12 11 11 10 10 10 10 9 9 8 6 6 6 6 7 6 7 6 6 6 6 5 5 4 4 3 3 2 2 2 2 1 1 1 2 3 3 3 3 3 3 4 6 7 7 7 7 6 6
29 29 29 30 30 30 29 28 28 28 27 26 26 26 26 25 26 26 27 27 26 26 25 24 23 21 19 18 16 15 15 14 13 12 12 12 12 12 11 11 10 10 10 10 10 9 8 7 7 7 8 8 7 7 7 6 6 6 5 5 4 3 2 2 2 2 2 2 1 1 1 2 3 3 3 3 3 3 5 7 7 8 8 7 7
29 29 29 30 30 30 29 28 27 27 26 26 26 26 26 26 26 26 26 27 27 26 25 23 21 21 19 17 16 15 16 15 14 12 11 11 12 12 11 11 10 10 10 10 10 10 9 8 8 8 9 9 9 8 8 7 7 7 6 5 4 4 3 2 2 2 2 2 2 1 0 1 2 2 3 3 3 3 4 6 8 8 8 8 8
28 28 29 30 30 29 28 27 27 27 26 26 26 26 26 26 26 26 26 28 27 26 24 21 20 20 19 18 16 16 17 16 14 13 11 11 12 12 12 12 11 11 10 10 10 10 10 9 9 9 10 11 10 10 9 8 8 7 6 6 5 4 3 2 1 1 2 2 2 2 1 1 2 2 3 3 4 4 4 5 7 8 9 9 9
27 27 28 28 27 27 26 27 27 26 26 25 26 27 26 26 25 25 26 27 27 25 23 21 21 20 19 18 17 18 18 16 14 13 12 11 11 12 13 13 13 12 12 12 11 11 11 11 10 10 11 12 12 11 11 10 9 8 7 6 6 5 5 4 2 1 1 1 1 2 2 2 2 2 3 3 4 4 4 5 7 8 9 10 10
25 26 26 25 25 26 27 27 27 26 25 25 26 26 26 25 24 24 25 26 26 25 22 21 22 21 19 18 17 19 19 16 15 14 13 12 11 12 13 13 14 14 13 13 13 13 13 13 12 11 12 12 13 13 12 11 10 9 8 7 6 6 6 5 4 2 1 0 1 2 2 2 2 2 3 4 4 4 5 6 7 8 9 10 10
23 25 25 24 25 27 28 28 27 26 25 26 26 26 25 24 23 24 24 25 25 24 22 22 24 22 20 18 18 20 19 17 16 16 14 13 12 12 13 13 14 14 14 14 14 14 14 14 14 13 12 13 14 14 14 13 12 10 9 8 7 7 7 6 6 5 3 2 0 1 2 2 3 3 3 4 4 5 5 6 7 8 9 10 10
23 25 25 25 26 26 27 27 27 26 26 26 26 26 25 23 22 23 23 24 24 24 23 24 25 24 22 19 19 20 19 18 17 16 15 14 13 13 13 13 14 14 14 14 14 15 15 15 15 14 13 13 14 15 15 14 13 12 10 9 8 8 7 8 8 7 5 4 1 1 2 2 3 3 3 4 4 5 5 6 7 8 9 10 11
24 25 26 26 27 27 27 26 26 26 26 25 24 23 22 22 21 22 23 24 24 23 24 26 26 25 23 20 20 20 19 18 18 16 16 15 14 14 14 14 13 13 13 13 14 14 15 15 15 15 14 14 14 16 16 16 15 14 12 10 9 9 9 9 9 8 7 6 3 1 1 2 2 3 3 4 4 5 5 6 7 8 9 10 11
24 26 26 27 27 27 26 25 26 26 25 24 21 20 20 20 20 22 24 25 25 25 26 28 27 26 24 22 21 21 20 19 18 17 16 16 15 15 15 14 13 13 14 13 13 13 15 16 16 15 14 14 15 16 16 16 16 15 14 12 11 10 10 10 10 10 9 8 6 3 2 1 2 2 3 3 4 5 5 6 7 7 8 10 11
23 26 26 26 26 26 26 25 26 25 23 20 17 18 17 17 19 22 25 26 26 26 27 28 29 28 25 23 22 22 20 19 18 17 17 16 15 15 14 13 13 13 14 13 12 12 14 15 17 16 14 14 15 16 16 17 17 16 15 14 13 12 12 12 12 12 11 9 7 6 4 2 2 2 3 3 4 5 5 6 6 7 8 9 10
22 25 26 26 27 26 25 26 26 22 19 17 15 15 15 17 18 20 24 27 27 27 29 30 31 30 26 24 24 22 20 18 18 17 16 16 15 14 13 12 12 13 13 13 13 12 13 15 16 16 15 15 16 16 17 17 17 17 16 16 15 14 14 14 14 14 12 12 9 7 6 5 4 3 3 3 4 5 6 6 7 7 7 8 10
21 24 26 26 26 23 22 24 22 17 17 18 17 18 19 19 18 17 22 25 25 27 31 33 33 31 27 26 25 22 19 17 18 17 16 16 16 15 14 13 13 14 14 14 14 13 13 14 16 16 15 15 16 17 17 18 18 17 17 17 17 16 17 16 17 16 15 14 11 9 8 7 6 5 4 4 4 5 6 7 7 7 7 8 9
21 24 25 24 23 21 21 19 16 16 18 19 19 19 19 20 19 20 24 25 25 26 29 33 33 31 29 28 25 20 18 17 17 16 16 18 18 17 17 16 16 16 15 15 15 14 13 14 15 16 16 15 17 18 18 19 19 19 19 19 18 18 18 18 19 17 17 16 13 11 10 9 8 7 6 5 5 5 6 7 8 8 8 8 9
20 23 24 24 22 19 17 16 17 21 20 20 21 21 20 21 22 21 22 22 25 26 26 29 33 33 30 27 22 17 16 16 16 16 17 18 18 18 17 17 16 16 16 15 15 15 15 15 14 15 16 16 17 18 19 19 20 21 21 20 20 20 20 20 20 18 18 17 14 14 12 10 10 10 9 8 7 6 6 7 8 8 9 8 9
21 22 24 24 24 20 20 22 24 23 20 22 23 19 17 16 17 16 18 20 24 26 25 28 34 32 27 22 18 15 15 14 15 16 17 17 16 16 15 15 15 15 15 15 15 15 16 16 16 16 17 17 17 18 19 20 21 22 22 22 21 22 22 22 21 20 20 18 16 17 14 13 12 12 11 11 9 8 8 7 8 8 9 9 9
21 22 24 24 25 24 24 26 26 23 21 21 19 16 15 14 16 16 18 19 20 22 23 26 29 26 21 18 15 14 14 14 15 15 15 15 14 13 13 13 13 14 14 15 16 16 16 17 17 17 18 19 18 19 19 20 22 22 23 23 23 23 23 22 22 22 21 17 17 19 17 15 15 14 13 13 12 10 9 9 8 9 9 10 10
21 22 24 24 25 24 24 24 25 25 23 21 20 19 18 17 17 16 15 14 13 14 16 19 20 19 18 16 15 15 14 14 15 14 15 15 13 13 13 13 12 12 13 15 16 16 16 17 18 19 19 20 20 20 19 20 22 23 24 24 25 24 23 23 23 23 21 17 18 20 18 18 17 16 16 15 14 13 12 11 10 10 10 10 11
21 22 24 24 23 23 24 24 24 23 22 22 22 21 19 17 17 16 14 13 13 12 13 15 16 16 16 15 14 15 14 14 14 15 16 15 13 14 14 13 13 13 14 15 15 15 16 17 18 20 20 21 21 20 20 20 21 23 24 24 26 25 24 24 23 24 22 19 20 21 20 20 19 19 18 17 16 16 15 14 12 12 11 11 11
22 23 23 23 22 23 24 24 25 24 23 24 23 20 19 20 19 18 16 14 13 12 12 14 13 12 12 14 15 14 13 13 14 14 13 13 12 13 13 12 11 12 12 14 15 15 16 16 17 19 20 20 20 20 19 19 20 22 24 25 26 25 26 26 25 25 22 21 22 22 21 21 21 21 20 19 18 18 17 17 15 14 13 12 11
23 23 23 23 23 23 24 24 25 25 25 24 22 19 19 21 19 18 16 12 12 11 12 13 13 11 10 14 14 14 14 13 13 12 11 12 12 13 12 10 10 11 11 13 14 14 14 14 16 17 19 20 19 19 19 19 20 22 24 25 26 26 27 27 26 26 24 22 23 23 23 23 22 23 23 22 21 20 19 19 19 17 15 14 13
23 22 22 22 23 24 24 24 23 24 24 21 19 18 20 21 19 16 14 12 14 15 14 15 14 12 11 13 14 14 15 14 14 12 11 13 13 13 12 10 10 12 12 12 13 13 13 13 14 15 17 18 19 19 19 20 20 21 23 25 26 26 26 26 26 26 25 24 23 23 24 23 23 24 24 24 23 23 22 21 21 20 18 17 15
22 21 21 21 22 23 23 23 22 24 22 20 21 20 20 20 17 14 14 15 17 16 15 15 15 13 12 14 15 16 15 14 14 12 11 13 13 13 11 9 10 12 12 12 13 14 13 13 14 14 15 16 17 18 19 20 20 21 22 23 24 25 25 25 25 25 25 24 23 23 23 24 24 24 24 25 25 25 24 23 23 22 21 20 18
20 20 20 20 21 22 22 22 23 24 24 23 22 21 19 18 16 14 15 16 15 13 13 13 14 15 15 16 17 15 13 13 14 12 11 13 13 13 11 10 11 11 11 12 14 15 14 14 14 14 15 15 15 16 18 19 21 21 21 22 24 24 24 24 24 24 24 23 22 22 22 23 23 24 25 25 26 26 26 25 25 24 23 22 21
18 18 19 20 21 22 22 21 22 24 26 26 24 22 21 18 16 15 15 13 11 12 12 13 14 15 16 17 15 12 11 12 12 11 12 13 12 13 12 12 12 10 10 12 14 15 15 15 14 14 15 15 14 14 16 18 19 20 21 22 22 21 22 23 23 23 22 22 21 21 21 22 23 24 24 25 26 26 27 26 26 25 24 24 23
17 19 19 20 21 20 20 20 21 22 24 26 26 24 20 19 18 15 14 12 11 11 11 11 13 15 16 15 12 9 10 11 11 11 12 12 11 12 12 13 12 8 9 12 12 14 15 14 14 14 14 14 14 14 15 16 17 19 20 21 21 20 21 22 23 23 22 22 21 20 21 22 23 24 24 25 26 26 27 27 27 26 26 25 25
16 19 20 20 19 16 16 17 18 20 22 24 25 21 18 18 17 15 14 14 15 14 12 12 12 14 15 12 9 8 9 10 10 11 11 11 11 11 12 13 11 7 8 13 13 13 13 12 13 13 13 13 13 13 14 14 15 16 18 19 20 21 23 24 24 24 22 22 21 21 22 22 23 24 24 25 26 26 27 27 28 27 27 27 27
14 16 16 15 12 11 12 13 16 18 19 21 20 19 19 18 17 16 15 16 16 16 16 16 17 17 14 9 8 8 8 9 10 11 11 10 10 10 11 11 10 7 10 14 13 13 13 11 11 12 12 13 14 14 14 14 15 16 17 18 19 20 21 22 22 22 22 22 22 22 22 22 22 23 24 25 26 27 27 28 29 29 28 28 28
15 13 11 9 8 9 11 11 12 14 14 15 16 17 19 19 17 16 16 17 17 18 18 18 17 14 10 7 7 8 9 10 10 10 10 9 9 10 10 10 10 9 11 12 13 14 13 10 10 10 10 10 11 12 12 13 14 15 16 18 18 18 20 20 20 20 21 21 21 22 23 23 22 22 23 25 26 27 28 29 30 30 30 29 29
13 9 7 8 9 10 10 11 11 11 12 14 16 19 20 19 18 16 14 13 14 15 15 14 11 8 8 9 9 10 11 11 10 10 10 8 8 8 9 10 10 10 10 10 11 13 12 10 9 8 8 8 8 9 9 9 11 12 13 14 14 16 18 19 19 20 21 21 21 22 24 24 24 23 24 24 25 26 28 30 32 32 32 30 30
13 12 10 11 12 11 11 12 12 12 13 14 17 17 15 15 14 13 11 9 9 10 8 8 10 9 9 10 11 11 12 10 9 10 10 9 8 8 9 11 10 8 9 10 11 12 12 10 8 7 7 8 9 10 10 9 9 10 10 11 12 14 16 17 17 18 19 20 21 23 24 25 27 27 27 26 27 28 30 31 31 31 33 32 31
17 17 17 16 15 14 12 11 14 15 14 13 14 13 12 11 8 8 10 7 5 6 7 7 9 10 8 9 10 10 9 9 9 11 11 10 9 10 11 11 10 8 9 11 11 12 12 10 8 8 8 10 11 11 10 10 9 10 10 11 12 12 14 15 15 16 16 17 18 20 21 23 25 26 27 28 28 29 31 31 29 28 30 32 33
18 19 20 20 18 17 14 11 14 14 11 11 13 14 16 15 10 8 10 10 8 8 9 8 8 8 8 9 10 10 10 10 11 12 12 11 11 12 12 11 11 9 10 12 13 12 12 10 9 9 10 11 11 11 11 10 9 10 11 11 11 11 12 12 13 13 13 12 13 14 15 15 17 19 21 22 23 25 27 27 26 26 27 29 31
20 21 22 21 19 18 15 12 15 14 12 12 14 16 15 14 15 14 12 12 12 10 10 10 10 10 11 12 12 12 12 12 12 12 13 13 12 12 13 12 11 8 10 13 13 12 11 11 11 11 11 12 12 11 11 10 9 9 11 11 10 10 10 10 10 10 10 10 10 10 10 11 11 12 14 16 19 23 25 24 24 24 25 26 27
21 21 21 19 17 16 13 13 17 17 17 16 17 18 16 14 15 15 13 12 14 13 13 12 13 12 13 13 13 14 14 13 12 12 13 13 12 13 14 13 12 11 11 13 13 11 11 12 13 13 12 13 13 12 11 11 10 10 11 11 10 10 9 9 9 9 9 10 10 10 10 10 10 11 12 14 17 22 25 24 24 23 23 24 25
21 18 16 16 15 13 13 15 19 20 20 19 17 18 18 16 15 15 14 15 15 15 15 15 15 14 14 14 14 14 14 13 12 13 14 13 13 14 15 14 13 11 11 13 13 12 11 12 13 13 13 13 14 13 13 12 11 11 11 11 12 11 10 10 10 9 10 10 11 11 12 12 13 12 12 14 15 19 22 23 23 22 23 24 25
17 14 13 15 15 14 13 16 20 21 20 18 16 15 15 15 16 17 17 16 16 17 18 17 16 15 15 15 15 14 13 13 13 13 13 13 14 15 16 15 12 11 11 13 14 13 13 12 12 13 13 14 14 15 15 14 14 14 13 13 13 12 12 11 10 10 10 11 11 12 13 14 14 14 14 15 15 16 17 18 20 21 22 25 26
12 12 13 14 16 16 15 16 20 19 18 19 18 18 18 18 20 21 20 19 17 17 18 18 17 16 16 16 16 15 14 13 13 14 13 12 14 15 16 15 14 14 13 15 16 14 14 13 12 12 13 14 15 16 16 16 16 16 15 15 14 13 13 12 11 11 11 12 13 13 14 14 15 15 15 16 16 15 15 15 17 18 20 25 26
9 13 16 17 16 15 14 15 17 16 16 19 23 21 19 18 20 20 19 18 17 16 17 17 17 17 16 16 16 15 15 14 13 14 13 12 14 15 15 15 15 16 14 15 17 16 15 14 14 14 13 14 16 17 17 16 17 18 18 17 16 15 15 14 12 12 13 14 14 14 15 16 16 16 16 16 16 16 15 14 14 14 17 20 21
10 11 12 13 13 12 13 14 14 16 16 18 19 18 17 17 17 17 16 15 15 15 14 14 16 17 17 16 15 15 15 14 13 13 13 12 13 13 14 14 15 16 15 14 16 16 16 15 15 14 13 15 17 18 17 17 18 19 19 19 18 18 16 14 13 14 15 16 16 16 17 17 17 17 17 17 18 17 16 15 14 13 14 17 18
14 12 10 12 13 13 16 16 15 17 19 20 18 16 17 17 16 14 13 13 12 13 13 13 14 15 16 15 15 15 15 14 14 13 13 13 12 12 13 14 15 17 18 17 16 16 17 16 15 15 15 17 19 19 18 18 19 19 19 19 19 19 17 16 17 18 18 18 17 17 17 18 19 19 19 19 19 19 18 17 16 15 15 16 18
14 15 14 14 15 15 16 17 16 17 18 19 17 16 15 15 15 13 12 12 12 13 13 13 14 15 15 15 15 15 15 15 14 14 14 13 13 13 13 14 15 16 18 19 19 19 18 17 18 19 19 19 19 20 19 19 19 20 21 21 20 20 19 19 20 20 19 19 18 18 19 20 21 22 22 21 20 19 19 19 18 18 18 18 19
13 12 14 14 15 16 17 17 18 17 18 18 16 15 14 13 12 12 12 12 12 12 12 13 15 16 16 15 15 15 16 16 16 15 15 15 14 14 14 14 15 16 18 19 19 20 19 19 19 21 21 20 21 21 21 20 21 21 21 22 23 22 21 21 21 20 19 18 18 20 21 22 23 24 24 24 22 20 20 21 21 21 21 20 21
14 12 11 11 13 17 17 18 19 19 18 18 16 14 14 12 11 11 11 11 11 11 12 14 16 18 17 17 15 14 15 16 16 16 16 16 16 16 15 15 15 16 17 19 19 19 19 20 20 21 21 21 21 22 22 21 21 22 22 22 23 24 23 23 22 20 19 19 20 22 22 23 24 24 25 25 25 24 23 22 22 22 22 23 23
17 17 13 9 11 14 16 19 19 19 17 16 14 11 11 10 9 9 9 9 10 10 12 14 17 19 19 18 15 13 13 14 14 15 15 15 16 16 15 15 15 16 17 18 18 19 19 20 20 20 20 20 21 21 21 22 22 22 22 22 23 24 23 22 22 20 20 22 24 23 23 23 24 24 25 25 26 26 25 23 22 22 22 23 24
15 16 12 9 10 12 14 16 14 15 18 19 16 12 11 10 9 9 9 8 9 10 12 14 17 19 20 20 18 15 14 13 13 14 14 14 14 15 15 16 16 17 17 17 17 18 19 19 20 20 20 20 20 20 20 21 21 21 22 22 22 23 22 22 23 23 22 24 24 23 22 23 23 24 24 25 25 25 25 25 23 22 21 22 23
Wind_Direction
278 281 283 286 287 288 290 291 291 292 293 293 294 295 294 295 298 303 308 311 313 314 316 317 314 310 307 306 308 312 316 316 318 322 325 325 323 319 314 314 314 316 315 316 322 319 309 298 285 265 242 237 244 245 246 247 249 263 290 314 327 335 342 344 313 280 264 257 244 228 212 201 177 153 151 153 157 158 160 156 158 162 169 166 155
281 282 284 286 287 289 290 290 291 292 292 293 293 292 292 294 298 303 307 310 312 313 315 316 313 311 309 308 308 311 313 312 313 316 319 318 315 311 308 310 311 312 313 316 317 312 298 284 277 263 246 242 245 247 248 246 250 263 289 310 321 331 341 343 318 282 262 249 242 230 210 194 176 155 148 150 156 159 163 161 163 168 172 168 158
282 283 284 285 287 289 289 290 290 291 291 292 292 291 292 295 299 303 306 308 310 311 312 313 312 311 310 309 309 310 310 309 310 312 312 311 309 307 307 307 308 308 309 308 304 301 292 277 267 258 247 243 243 249 250 246 253 266 288 305 315 329 339 341 332 298 271 250 239 229 214 198 179 155 148 149 154 157 163 166 170 175 175 170 163
282 283 285 286 288 288 289 289 288 289 291 292 292 291 293 296 300 302 304 307 307 308 309 310 309 309 309 308 310 311 309 307 308 309 307 308 308 308 308 308 307 306 304 301 298 296 287 271 255 248 244 241 242 248 250 247 256 270 286 303 314 328 338 344 351 326 304 274 244 223 214 203 184 160 148 148 150 156 163 167 174 179 178 174 170
281 283 285 286 288 288 288 287 288 290 291 292 291 292 293 296 299 300 303 304 303 304 306 306 306 305 306 306 308 311 309 307 308 307 306 308 311 311 310 310 309 308 307 302 298 295 284 266 249 240 240 240 240 244 250 251 257 268 282 298 311 325 336 348 5 351 338 313 261 221 212 201 184 162 143 142 146 156 164 170 177 180 180 179 178
282 284 286 287 287 286 286 286 289 291 291 291 292 293 294 296 297 299 300 300 300 301 302 302 302 301 300 301 306 310 309 306 306 305 307 310 312 312 310 310 310 309 307 304 300 295 286 269 253 242 238 237 238 240 248 252 255 262 275 290 303 315 332 352 13 10 3 6 327 245 215 201 183 166 142 134 142 158 168 173 179 182 183 183 183
283 286 288 288 287 286 286 288 290 291 292 292 293 293 293 294 295 297 298 296 295 296 297 298 297 294 294 297 303 308 305 301 301 305 309 311 311 310 310 310 309 307 304 303 301 295 287 274 259 247 237 233 235 237 244 251 253 257 266 280 292 303 319 343 17 25 15 27 7 292 217 197 186 170 145 135 138 159 172 178 182 184 185 186 185
285 288 289 288 286 286 289 292 293 292 293 293 292 291 292 292 294 296 295 292 291 292 293 293 291 288 288 292 299 303 297 295 299 306 308 307 308 308 309 309 307 306 304 302 300 295 288 278 264 251 238 232 232 233 238 244 249 255 261 272 281 290 305 321 10 37 31 35 22 358 120 179 183 172 155 147 145 158 174 183 187 189 188 188 188
288 289 288 287 288 291 294 295 294 293 292 291 291 291 290 290 292 292 290 288 287 288 288 288 284 282 285 288 293 294 290 291 298 304 303 301 302 305 306 305 303 302 301 300 297 294 288 279 268 254 241 233 231 230 232 237 243 251 256 264 272 279 289 298 329 28 46 38 28 36 57 109 160 167 166 159 155 158 172 186 192 194 192 191 191
288 288 289 291 293 295 295 293 292 290 289 289 291 290 289 289 289 287 285 284 283 283 282 280 277 278 282 285 285 285 284 288 297 299 297 296 298 300 301 301 302 301 298 295 293 290 286 279 268 256 244 236 232 230 229 232 237 243 251 257 263 271 277 280 282 309 41 44 52 62 67 89 132 160 171 170 164 162 170 187 195 197 196 194 193
284 288 291 292 291 290 290 290 288 286 286 287 289 289 287 286 283 281 280 279 277 276 274 270 270 273 278 278 276 278 280 287 294 294 293 292 294 294 295 299 301 301 297 293 289 285 282 277 270 261 249 241 235 232 229 230 234 238 245 250 256 263 270 273 269 271 280 162 88 77 84 97 121 152 175 179 174 171 173 183 195 199 198 197 196
286 289 290 288 284 283 284 285 285 284 287 288 289 289 287 283 278 276 274 272 270 270 267 262 263 268 272 271 270 273 277 286 291 290 290 289 291 292 293 298 300 300 297 293 288 283 279 277 274 266 255 245 238 234 231 230 233 236 242 246 252 258 264 269 268 267 258 249 150 91 96 102 119 146 174 183 182 180 179 183 192 200 199 198 198
288 286 283 282 280 280 281 284 284 285 288 290 291 289 286 280 275 272 267 265 265 265 261 255 256 260 266 267 265 268 274 283 288 287 287 286 289 294 297 299 300 298 295 292 288 282 276 273 272 267 257 248 240 235 233 232 233 236 241 246 251 257 264 268 269 267 262 267 272 126 114 112 126 148 170 183 188 188 186 186 190 197 200 198 198
286 281 280 282 282 284 284 285 286 286 290 291 290 287 284 278 275 270 263 263 264 263 257 251 251 254 262 266 263 264 270 278 283 283 283 286 291 296 297 299 299 295 291 291 288 282 274 268 265 263 257 250 241 237 235 233 235 237 242 247 251 257 262 266 269 266 266 273 270 232 158 129 140 156 170 184 190 194 194 192 192 195 198 198 198
286 283 285 287 288 290 288 288 288 288 291 290 286 283 280 276 271 267 263 262 264 262 254 249 247 250 259 265 262 259 265 275 279 279 281 287 293 296 297 297 296 290 289 290 287 281 271 263 260 259 256 251 244 239 235 234 236 238 243 247 251 256 259 264 264 261 265 269 267 260 249 192 173 170 174 185 191 196 198 198 197 196 197 198 198
288 287 288 288 287 289 288 289 289 289 290 286 283 279 275 273 267 261 260 261 263 262 256 249 246 248 255 263 260 255 263 273 274 275 280 286 293 297 299 298 294 290 290 288 284 279 269 261 259 260 258 253 248 242 235 233 234 237 242 247 250 253 256 259 259 258 262 265 264 260 260 251 225 207 191 191 196 199 201 200 199 199 199 199 199
283 283 286 288 288 289 290 289 290 290 289 285 282 277 274 274 265 256 256 259 263 267 261 250 244 246 253 259 254 252 263 269 270 274 280 286 293 297 300 299 295 292 291 287 282 278 270 262 259 260 259 255 251 244 235 232 231 233 238 244 248 251 253 255 256 256 257 259 258 255 259 261 249 235 217 206 206 205 205 203 200 199 200 201 201
277 278 283 288 286 289 293 286 282 285 288 287 283 279 276 269 258 256 260 260 264 269 264 252 242 244 252 252 247 251 260 263 268 275 280 287 293 295 295 293 291 290 288 285 280 276 271 263 260 259 258 255 252 247 238 232 229 231 234 239 244 248 251 252 253 253 253 255 255 254 256 258 257 248 234 222 217 214 211 208 204 201 200 201 203
279 280 284 289 287 294 294 275 271 288 289 285 284 281 275 263 256 263 266 264 265 266 263 253 242 244 250 247 244 249 255 261 268 273 281 290 294 293 290 288 287 284 281 278 272 267 265 261 261 262 261 257 252 248 241 233 229 229 231 235 240 244 248 250 251 251 253 255 253 253 255 255 257 256 248 234 225 222 219 214 210 206 203 202 203
275 280 284 287 288 291 280 266 285 295 285 283 286 283 275 264 262 266 265 265 265 262 263 254 241 241 245 243 241 246 256 263 268 275 286 293 296 295 290 287 284 280 275 271 268 261 258 257 259 262 263 260 253 248 243 236 231 228 229 233 237 242 245 246 249 248 250 254 254 254 256 255 256 257 256 249 237 229 226 222 216 211 207 205 204
267 272 277 280 283 279 267 272 288 287 283 289 285 278 275 267 262 264 266 268 266 262 262 250 236 235 238 239 241 251 264 269 273 280 287 293 299 297 291 286 282 279 274 270 265 259 255 254 255 258 260 259 254 248 244 238 233 230 229 232 235 240 243 245 248 248 248 251 255 258 258 256 254 253 255 254 249 240 234 229 223 218 213 210 208
269 269 272 276 277 276 274 278 282 280 285 290 281 276 280 271 268 274 275 274 268 261 253 238 230 233 238 240 247 261 271 274 277 281 285 292 295 293 289 285 282 278 274 270 264 259 256 255 254 254 256 257 254 248 243 239 235 232 231 232 235 239 244 247 249 251 250 248 251 257 259 257 255 252 252 253 254 249 243 239 232 227 220 216 213
272 271 272 275 276 276 277 278 279 281 282 281 276 280 280 270 272 279 277 273 267 249 234 231 235 245 248 247 255 266 272 274 275 280 287 290 289 287 286 282 281 278 272 268 265 263 259 256 255 253 252 253 254 251 245 240 237 235 234 234 236 240 244 248 251 253 254 250 249 256 259 259 258 254 252 252 255 255 251 247 242 237 229 224 220
271 272 271 274 275 276 277 277 279 283 284 281 278 279 275 270 277 276 269 269 262 241 235 247 251 250 250 252 260 262 265 271 274 281 287 288 286 284 282 280 280 276 271 269 267 266 263 259 255 253 251 250 251 252 249 244 240 237 236 236 238 240 243 247 250 253 255 252 252 257 259 260 260 258 255 253 254 256 256 253 249 246 240 234 228
272 273 273 272 269 269 274 275 279 283 282 282 280 278 271 273 281 273 269 268 254 244 253 257 245 242 248 253 261 260 262 273 276 281 283 282 283 283 284 283 282 277 273 272 270 265 262 260 257 253 251 251 250 251 250 247 243 240 238 239 239 240 242 245 247 250 253 252 254 258 259 260 261 261 260 257 254 254 256 256 253 250 248 245 239
273 275 276 274 269 266 269 270 277 284 283 279 276 273 271 279 283 274 270 255 233 243 255 244 229 228 238 245 256 261 265 272 273 278 282 282 284 288 290 287 287 285 281 281 276 269 266 264 261 256 253 253 252 251 250 248 245 242 241 241 241 241 243 245 246 248 251 253 255 258 259 260 262 262 262 260 258 255 254 255 255 253 252 251 249
276 279 279 278 275 272 271 269 270 280 285 278 270 271 275 282 283 271 261 237 231 242 240 233 233 231 228 237 249 259 266 270 270 274 280 285 289 289 288 291 295 293 291 289 284 283 279 271 265 260 255 254 252 251 251 250 247 244 243 244 245 246 246 248 250 250 252 254 256 259 261 263 263 263 262 262 260 258 254 252 254 255 253 253 252
283 284 282 281 279 276 274 271 268 273 278 274 273 276 276 280 276 257 241 234 234 232 225 228 235 233 235 248 253 254 261 265 266 269 273 279 283 282 285 292 294 295 297 293 287 285 281 275 270 265 260 255 251 251 251 251 249 247 245 246 247 248 249 250 251 251 251 253 255 258 261 264 265 265 265 264 261 260 257 255 255 255 255 255 254
288 288 285 282 278 277 276 275 272 270 271 274 278 281 278 275 265 244 232 230 230 229 227 229 229 229 243 253 248 248 258 259 259 265 267 266 268 273 280 277 274 281 287 287 284 277 271 270 269 268 266 261 257 254 253 253 252 251 249 248 248 249 249 250 250 251 251 251 253 255 257 261 264 265 265 264 263 262 260 259 259 259 258 258 258
288 287 286 284 280 280 280 277 275 271 269 271 276 283 279 263 244 232 227 228 239 245 242 241 232 230 244 245 237 243 256 256 256 258 258 259 263 269 270 265 266 270 273 279 279 270 263 262 265 268 269 269 266 261 258 257 256 255 254 252 252 251 251 250 250 252 252 251 251 251 253 256 259 262 263 263 263 263 262 262 262 262 261 260 260
289 284 283 284 284 284 284 282 279 276 271 267 269 277 268 242 225 220 227 238 247 246 242 242 231 231 240 237 232 242 247 251 254 250 249 250 254 261 262 262 264 261 267 277 278 271 263 259 263 268 269 270 268 264 262 261 261 260 260 259 258 256 256 255 254 253 252 252 251 251 251 253 256 259 261 262 263 263 264 265 265 264 262 260 260
289 283 279 280 284 287 289 286 279 273 270 265 263 258 242 230 228 232 245 251 248 246 240 232 232 238 240 235 235 239 238 244 245 241 244 242 242 252 257 262 265 259 270 280 283 279 270 262 263 266 268 269 267 264 263 262 263 264 265 266 263 262 261 260 258 255 253 253 253 253 251 251 254 256 258 260 261 262 264 265 266 266 263 261 260
290 287 278 276 281 290 293 289 280 274 271 264 254 239 231 238 247 250 254 254 251 249 243 240 243 243 240 243 242 232 229 233 236 237 241 243 244 249 254 260 266 265 272 278 282 281 276 267 263 263 265 268 269 267 264 262 263 265 268 267 266 266 265 262 259 257 256 255 253 253 254 254 253 255 258 259 261 262 263 264 265 265 264 262 261
288 287 275 273 282 293 296 297 291 282 273 261 248 241 243 247 251 254 254 253 250 245 241 239 239 235 236 248 240 236 237 231 236 239 236 245 249 247 251 257 260 259 264 273 280 280 275 267 263 264 266 270 272 271 266 265 264 265 268 265 263 266 265 261 261 262 261 259 255 253 255 256 256 257 259 261 262 263 263 263 262 261 261 261 260
275 272 266 276 280 284 289 296 297 286 273 261 253 254 253 246 243 249 250 246 243 238 231 225 229 239 240 240 237 244 242 230 235 239 232 238 248 251 254 255 257 259 265 274 280 278 269 262 263 263 269 274 274 276 271 270 271 268 268 262 260 268 268 264 265 267 265 263 260 257 255 256 256 257 258 260 262 263 264 263 261 258 258 258 258
256 255 266 276 271 274 281 286 291 285 274 264 254 250 239 225 223 226 224 234 247 241 229 228 239 243 231 227 231 237 237 230 237 246 241 239 248 255 254 255 257 260 267 269 270 270 261 254 257 257 269 280 278 281 280 276 275 272 271 267 266 272 272 269 269 271 271 268 266 263 260 258 258 258 258 260 261 262 264 265 265 261 258 256 256
251 256 264 267 263 270 278 280 285 279 265 254 242 224 209 208 200 188 196 213 230 216 222 239 238 234 229 227 230 237 242 239 240 248 250 248 249 249 248 254 259 255 254 256 257 260 256 250 249 255 273 285 281 280 281 279 277 276 275 274 273 274 273 274 275 276 277 276 273 270 267 264 262 261 261 261 261 261 263 265 267 267 262 258 256
251 256 259 259 259 269 276 276 278 264 238 227 220 213 215 218 213 199 199 205 202 197 210 225 231 233 236 235 237 241 243 242 242 246 249 250 251 250 249 252 258 251 243 252 259 258 254 249 250 258 273 281 278 277 278 278 277 277 274 271 272 272 272 274 274 275 279 281 281 278 275 272 270 269 267 265 264 264 265 266 267 268 266 262 258
249 252 256 257 259 267 271 267 262 247 232 228 221 222 222 213 214 220 218 218 226 230 226 230 239 238 236 238 242 244 242 240 243 248 250 248 247 252 254 251 253 251 244 252 258 258 254 249 253 263 271 273 271 271 274 276 276 274 273 272 271 272 271 272 272 274 279 284 286 284 284 283 281 281 281 278 274 272 270 270 270 270 267 265 262
248 250 256 263 266 267 267 261 257 249 243 241 232 228 222 208 213 220 224 232 238 243 243 246 251 248 244 244 246 250 251 247 248 255 258 254 249 254 257 254 254 254 252 255 258 262 259 251 253 260 264 266 265 264 266 273 275 270 270 273 273 273 273 271 273 276 280 285 288 290 290 289 287 287 290 289 284 278 274 270 270 271 269 265 261
256 256 263 273 276 269 259 251 251 246 239 234 223 215 213 213 218 222 230 243 251 255 255 256 257 256 254 251 251 255 258 256 255 258 261 260 257 255 253 256 262 260 255 258 264 266 263 255 252 255 257 258 259 263 268 273 274 270 269 271 271 272 272 269 269 273 279 284 286 288 289 289 288 287 290 295 295 289 280 271 266 265 265 264 262
275 276 279 278 270 259 244 239 246 242 225 210 202 210 225 230 234 241 250 258 263 262 258 256 256 257 256 254 252 253 255 257 255 256 256 255 256 254 250 251 260 263 257 262 267 267 266 263 253 250 252 253 254 259 267 272 273 273 272 269 269 270 270 267 266 270 275 279 281 284 286 287 287 287 289 295 302 301 289 275 266 261 259 259 259
283 276 270 259 248 240 228 227 238 232 211 210 224 242 252 248 248 254 261 265 264 258 256 255 253 253 253 253 252 250 250 251 252 254 252 249 251 250 249 247 251 261 265 266 268 267 265 262 257 255 256 256 254 254 260 265 269 273 274 273 272 270 269 270 270 272 273 276 278 281 285 286 285 286 288 292 297 303 300 282 266 261 260 259 258
260 251 246 239 238 236 229 233 237 225 218 234 244 247 248 250 253 255 257 258 255 252 252 252 250 248 248 248 249 249 248 246 247 250 250 248 247 244 247 248 250 261 269 266 265 266 264 262 264 266 262 261 259 257 259 261 265 270 274 277 278 275 275 274 273 275 277 278 278 280 283 285 286 285 284 287 290 293 297 292 278 264 256 258 264
246 245 233 225 233 237 237 241 238 233 237 243 242 241 246 255 258 255 251 246 241 243 244 244 244 244 243 242 242 244 244 242 241 243 244 244 245 245 247 248 250 257 262 261 259 263 266 268 269 267 262 263 264 263 263 263 267 269 271 274 275 278 280 277 277 280 281 280 279 279 281 283 284 284 283 284 285 284 287 290 288 277 258 256 267
250 253 230 215 226 233 237 239 240 246 244 236 234 243 251 254 252 246 239 233 230 232 235 238 238 238 239 237 235 236 237 236 234 234 236 235 237 240 242 244 246 249 254 258 261 264 267 271 272 266 263 265 266 266 265 266 268 269 271 273 274 276 279 282 286 285 282 282 281 280 281 282 281 281 282 282 282 282 283 285 286 285 276 268 273
265 267 259 250 252 250 250 252 255 251 235 227 234 246 248 244 240 234 229 227 228 228 228 231 232 232 233 232 232 233 233 233 232 231 233 234 235 237 240 243 244 246 251 256 260 264 267 271 271 269 268 268 268 268 269 268 269 269 271 276 278 278 280 284 285 284 281 279 279 281 282 282 281 280 280 280 279 278 278 282 283 281 278 275 275
276 275 270 268 266 263 259 261 264 250 231 234 249 252 246 241 235 229 229 232 234 232 228 227 229 230 231 233 235 236 235 234 235 235 237 239 241 242 245 248 249 251 254 257 259 261 263 265 267 269 271 272 271 272 272 272 272 271 272 276 279 281 284 284 284 284 279 275 279 283 282 281 280 280 281 281 279 276 275 277 279 278 275 273 273
267 261 261 269 273 270 268 275 272 253 243 251 256 253 246 243 239 230 232 239 242 244 239 234 233 232 234 236 236 238 239 239 239 241 243 245 248 249 251 253 253 254 256 260 263 263 264 264 264 266 269 271 272 274 275 275 275 275 276 278 280 283 286 285 286 283 272 275 285 286 284 283 281 282 282 282 281 280 278 276 276 276 276 275 275
266 263 260 272 282 275 276 288 276 253 260 265 250 248 249 242 239 235 237 244 249 254 253 249 246 241 240 239 237 239 244 245 244 244 245 247 251 254 255 255 255 255 255 258 262 264 266 266 265 266 267 269 271 273 276 277 277 278 279 280 281 284 286 284 285 282 274 280 288 287 286 286 284 284 283 282 283 283 283 281 278 276 275 275 276
278 276 272 284 294 285 281 291 275 259 282 278 248 243 249 243 243 241 241 245 248 254 255 256 255 250 245 239 238 242 246 250 251 249 247 246 249 253 254 254 254 254 254 255 259 261 263 265 265 266 267 269 271 273 274 276 278 280 280 282 282 284 285 283 283 285 283 285 287 288 289 288 287 286 285 284 283 283 284 284 283 281 277 274 274
Height
5856 5855 5854 5854 5854 5853 5853 5852 5852 5852 5852 5851 5851 5851 5850 5850 5849 5849 5849 5848 5847 5847 5846 5846 5846 5845 5845 5844 5844 5844 5843 5842 5842 5841 5840 5840 5839 5838 5838 5838 5837 5837 5837 5836 5837 5837 5837 5837 5837 5837 5836 5836 5836 5836 5836 5836 5836 5836 5836 5836 5836 5836 5837 5837 5837 5837 5837 5838 5838 5838 5839 5839 5839 5839 5839 5839 5840 5840 5840 5841 5841 5841 5842 5842 5842
5854 5853 5853 5852 5852 5852 5851 5851 5851 5850 5850 5850 5850 5849 5849 5848 5848 5848 5848 5847 5847 5846 5846 5845 5844 5844 5844 5843 5843 5843 5842 5841 5840 5840 5839 5838 5838 5837 5837 5837 5836 5836 5836 5835 5836 5836 5836 5836 5836 5836 5836 5836 5836 5836 5836 5836 5836 5836 5836 5836 5836 5836 5836 5837 5837 5837 5837 5837 5838 5838 5839 5839 5839 5839 5839 5839 5840 5840 5840 5841 5841 5842 5842 5842 5842
5852 5851 5851 5850 5850 5850 5850 5849 5849 5849 5849 5849 5848 5848 5848 5848 5847 5847 5847 5846 5846 5845 5845 5844 5843 5843 5842 5842 5842 5841 5840 5839 5839 5838 5838 5837 5836 5836 5836 5836 5835 5835 5835 5834 5834 5835 5835 5835 5835 5835 5835 5835 5835 5835 5835 5836 5836 5836 5836 5836 5836 5836 5836 5836 5836 5836 5837 5837 5837 5838 5838 5838 5839 5839 5839 5839 5839 5840 5840 5841 5841 5842 5842 5842 5843
5849 5848 5848 5848 5848 5848 5848 5847 5847 5847 5847 5847 5847 5847 5847 5847 5847 5846 5846 5845 5845 5844 5843 5842 5842 5841 5841 5841 5840 5840 5839 5838 5837 5837 5836 5835 5835 5835 5835 5835 5835 5834 5834 5834 5834 5834 5834 5834 5834 5834 5834 5834 5835 5835 5835 5835 5835 5835 5835 5836 5836 5836 5836 5836 5836 5836 5836 5836 5837 5837 5838 5838 5839 5839 5839 5839 5839 5840 5840 5841 5841 5842 5842 5843 5843
5847 5847 5846 5846 5846 5846 5846 5845 5846 5846 5846 5846 5846 5846 5846 5846 5845 5845 5844 5844 5843 5842 5842 5841 5840 5839 5839 5839 5839 5838 5838 5837 5836 5835 5834 5834 5834 5834 5834 5834 5834 5834 5834 5833 5833 5833 5833 5833 5833 5833 5833 5833 5834 5835 5835 5835 5835 5835 5835 5835 5836 5836 5836 5836 5836 5836 5836 5836 5836 5837 5837 5838 5838 5839 5839 5839 5839 5839 5840 5841 5841 5842 5842 5843 5843
5845 5845 5845 5844 5844 5844 5844 5844 5844 5844 5844 5844 5844 5845 5844 5844 5843 5843 5842 5842 5841 5841 5840 5839 5838 5838 5838 5837 5837 5837 5837 5836 5836 5835 5833 5833 5833 5833 5833 5834 5834 5834 5834 5833 5833 5833 5832 5832 5832 5832 5832 5832 5833 5834 5834 5834 5834 5834 5835 5835 5835 5835 5836 5836 5836 5836 5836 5836 5836 5836 5837 5837 5838 5838 5839 5839 5839 5839 5840 5841 5841 5842 5842 5842 5843
5843 5843 5843 5842 5842 5842 5842 5842 5842 5842 5842 5843 5843 5843 5842 5842 5841 5841 5840 5839 5839 5839 5838 5837 5837 5836 5836 5836 5836 5836 5835 5835 5834 5834 5833 5833 5832 5833 5833 5833 5833 5833 5833 5832 5832 5832 5832 5831 5831 5831 5831 5831 5832 5833 5833 5834 5834 5834 5834 5834 5835 5835 5835 5836 5836 5836 5836 5836 5836 5836 5836 5837 5838 5838 5838 5839 5839 5840 5840 5840 5841 5842 5842 5842 5842
5841 5841 5841 5840 5840 5840 5840 5841 5841 5840 5841 5841 5841 5841 5840 5839 5839 5838 5838 5837 5837 5837 5836 5836 5835 5835 5835 5835 5835 5835 5834 5833 5833 5833 5833 5832 5832 5832 5832 5832 5832 5832 5832 5832 5831 5831 5831 5831 5830 5830 5830 5830 5831 5831 5832 5833 5833 5833 5833 5833 5834 5834 5835 5835 5835 5835 5835 5835 5835 5836 5836 5836 5837 5837 5838 5838 5839 5840 5840 5840 5841 5841 5842 5842 5842
5839 5839 5839 5838 5838 5839 5839 5839 5838 5838 5838 5839 5839 5838 5838 5837 5837 5836 5836 5835 5835 5834 5834 5834 5834 5833 5833 5833 5834 5833 5832 5832 5832 5832 5832 5831 5831 5831 5831 5831 5831 5831 5831 5830 5830 5830 5830 5830 5830 5829 5829 5829 5829 5830 5831 5831 5832 5832 5832 5833 5833 5834 5834 5834 5835 5835 5835 5835 5835 5835 5836 5836 5836 5837 5837 5838 5839 5839 5840 5840 5841 5841 5841 5842 5842
5836 5836 5837 5837 5837 5837 5836 5836 5836 5836 5836 5836 5836 5835 5835 5835 5835 5834 5834 5833 5832 5832 5832 5832 5832 5832 5832 5832 5832 5831 5831 5831 5831 5831 5831 5831 5831 5830 5830 5830 5830 5830 5830 5829 5829 5829 5829 5829 5829 5828 5828 5828 5828 5829 5830 5830 5831 5831 5831 5832 5832 5833 5833 5834 5834 5834 5835 5835 5835 5835 5835 5835 5836 5836 5837 5838 5838 5839 5839 5840 5841 5841 5841 5842 5842
5834 5835 5836 5836 5835 5834 5834 5833 5833 5834 5834 5834 5833 5833 5832 5833 5832 5832 5831 5830 5830 5830 5830 5830 5830 5830 5830 5830 5830 5830 5830 5831 5830 5830 5830 5830 5830 5829 5829 5829 5829 5829 5829 5828 5828 5828 5828 5828 5828 5827 5827 5827 5828 5828 5829 5829 5830 5830 5831 5831 5832 5832 5832 5833 5833 5834 5834 5835 5835 5835 5835 5835 5835 5836 5836 5837 5838 5838 5839 5840 5840 5841 5841 5841 5842
5832 5833 5834 5834 5833 5832 5831 5831 5831 5832 5832 5831 5830 5830 5830 5830 5830 5829 5828 5827 5827 5827 5828 5828 5828 5828 5828 5829 5829 5829 5829 5829 5829 5829 5829 5829 5829 5829 5829 5829 5828 5828 5827 5827 5827 5827 5827 5827 5827 5827 5827 5827 5827 5827 5828 5829 5829 5829 5830 5830 5831 5831 5832 5832 5832 5833 5833 5834 5834 5834 5834 5835 5835 5835 5836 5837 5837 5838 5838 5839 5840 5840 5841 5841 5842
5830 5830 5830 5830 5829 5829 5829 5829 5830 5829 5829 5828 5828 5828 5827 5827 5826 5826 5825 5825 5825 5825 5826 5826 5826 5826 5826 5827 5827 5828 5828 5828 5827 5827 5827 5827 5828 5828 5828 5828 5827 5826 5826 5826 5825 5825 5825 5825 5825 5825 5826 5826 5826 5827 5827 5828 5828 5829 5829 5830 5830 5831 5831 5831 5832 5832 5833 5833 5834 5834 5834 5834 5835 5835 5836 5836 5837 5837 5838 5839 5839 5840 5840 5841 5841
5828 5827 5826 5827 5827 5827 5827 5827 5827 5827 5826 5826 5825 5825 5824 5824 5823 5823 5823 5823 5822 5823 5823 5824 5824 5824 5825 5825 5825 5826 5826 5826 5826 5826 5826 5826 5827 5827 5827 5827 5826 5825 5825 5825 5824 5824 5824 5823 5823 5824 5824 5825 5825 5826 5826 5827 5828 5828 5829 5829 5830 5830 5831 5831 5831 5832 5832 5832 5833 5834 5834 5834 5835 5835 5835 5836 5836 5837 5838 5838 5839 5839 5840 5840 5841
5825 5824 5824 5824 5824 5823 5824 5824 5824 5823 5823 5823 5822 5822 5821 5821 5821 5821 5821 5820 5820 5820 5821 5821 5822 5823 5823 5823 5824 5825 5825 5825 5825 5825 5825 5825 5825 5826 5826 5825 5824 5824 5824 5823 5823 5823 5822 5822 5821 5822 5823 5824 5824 5825 5826 5826 5827 5827 5828 5829 5829 5830 5830 5830 5831 5831 5831 5832 5833 5833 5834 5834 5835 5835 5835 5836 5836 5837 5837 5838 5838 5839 5839 5840 5840
5823 5821 5821 5821 5820 5820 5820 5820 5820 5820 5820 5820 5820 5819 5819 5819 5819 5819 5818 5818 5818 5819 5819 5820 5820 5821 5821 5822 5823 5823 5824 5824 5824 5824 5824 5824 5824 5824 5824 5824 5823 5822 5822 5822 5822 5821 5821 5820 5820 5821 5822 5823 5823 5824 5825 5825 5826 5827 5827 5828 5828 5829 5829 5829 5830 5830 5830 5831 5832 5832 5833 5834 5834 5835 5835 5836 5836 5836 5837 5838 5838 5839 5839 5839 5840
5821 5818 5817 5817 5817 5817 5817 5817 5816 5817 5818 5818 5818 5818 5817 5817 5816 5816 5816 5816 5816 5817 5818 5818 5818 5819 5819 5820 5821 5822 5822 5822 5822 5822 5823 5823 5823 5823 5823 5822 5822 5821 5821 5821 5821 5821 5820 5819 5818 5819 5821 5822 5822 5823 5824 5824 5825 5825 5826 5827 5827 5828 5828 5828 5829 5829 5829 5830 5831 5832 5832 5833 5834 5835 5835 5835 5836 5836 5837 5837 5838 5838 5839 5839 5839
5819 5816 5814 5814 5814 5815 5816 5815 5814 5814 5815 5815 5815 5815 5815 5815 5814 5814 5814 5814 5815 5816 5815 5815 5816 5817 5818 5818 5819 5821 5821 5821 5821 5821 5821 5822 5822 5822 5822 5821 5820 5820 5820 5820 5820 5820 5819 5818 5817 5818 5819 5821 5821 5822 5822 5823 5823 5824 5825 5825 5826 5826 5827 5827 5828 5828 5828 5829 5830 5830 5831 5832 5833 5834 5835 5835 5836 5836 5836 5837 5837 5838 5838 5838 5839
5817 5815 5812 5811 5812 5812 5813 5812 5811 5812 5812 5812 5812 5812 5812 5812 5812 5812 5812 5813 5814 5813 5813 5814 5815 5816 5816 5817 5818 5819 5819 5819 5819 5820 5820 5820 5820 5820 5820 5819 5819 5818 5818 5818 5818 5818 5818 5817 5817 5816 5817 5819 5820 5820 5821 5821 5822 5823 5823 5824 5824 5825 5826 5826 5826 5827 5827 5828 5829 5830 5830 5831 5832 5833 5834 5835 5835 5835 5836 5836 5837 5837 5838 5838 5838
5814 5813 5811 5809 5809 5811 5810 5809 5808 5809 5810 5809 5809 5809 5810 5810 5811 5811 5811 5811 5811 5811 5811 5812 5814 5814 5814 5815 5817 5817 5817 5818 5818 5819 5819 5818 5818 5818 5818 5817 5817 5816 5816 5816 5816 5816 5816 5816 5816 5815 5816 5817 5818 5818 5819 5820 5820 5821 5822 5822 5823 5824 5824 5824 5825 5826 5826 5827 5829 5829 5829 5830 5831 5832 5833 5834 5835 5835 5835 5836 5836 5837 5837 5838 5838
5812 5811 5810 5808 5807 5809 5809 5808 5806 5807 5808 5808 5807 5807 5808 5808 5808 5809 5809 5809 5809 5809 5810 5810 5812 5813 5814 5815 5815 5815 5815 5816 5817 5817 5817 5817 5816 5815 5815 5815 5814 5814 5814 5815 5815 5814 5814 5814 5814 5814 5814 5814 5815 5816 5817 5818 5818 5819 5820 5821 5822 5822 5822 5823 5823 5824 5825 5827 5828 5828 5829 5830 5830 5831 5832 5833 5834 5834 5835 5835 5836 5836 5837 5837 5838
5810 5809 5809 5808 5807 5807 5808 5807 5805 5805 5806 5806 5805 5805 5806 5806 5806 5807 5807 5807 5807 5807 5808 5810 5812 5813 5813 5813 5813 5814 5814 5814 5815 5815 5815 5815 5814 5813 5813 5813 5813 5813 5813 5813 5813 5812 5812 5812 5813 5813 5812 5812 5813 5814 5815 5816 5817 5818 5819 5820 5820 5821 5822 5822 5823 5823 5823 5827 5827 5827 5828 5829 5829 5830 5831 5832 5832 5833 5834 5835 5835 5836 5836 5836 5837
5808 5807 5807 5807 5806 5806 5806 5805 5804 5803 5804 5804 5803 5803 5804 5804 5805 5805 5805 5806 5805 5806 5808 5811 5813 5813 5812 5811 5812 5812 5812 5813 5812 5813 5813 5812 5811 5811 5811 5811 5811 5811 5811 5811 5811 5811 5810 5810 5810 5811 5811 5811 5811 5812 5813 5814 5815 5816 5817 5819 5819 5820 5821 5822 5822 5822 5823 5826 5827 5826 5827 5827 5828 5829 5830 5831 5831 5832 5833 5834 5835 5835 5835 5836 5836
5805 5805 5805 5805 5804 5804 5804 5804 5802 5801 5802 5801 5800 5801 5801 5802 5802 5803 5804 5805 5806 5807 5809 5811 5812 5812 5811 5810 5810 5810 5811 5811 5811 5811 5811 5810 5809 5808 5809 5810 5810 5810 5810 5810 5810 5809 5809 5808 5809 5809 5809 5809 5809 5810 5811 5812 5813 5814 5816 5817 5817 5819 5820 5820 5821 5820 5822 5825 5825 5825 5826 5826 5827 5828 5829 5830 5831 5831 5832 5833 5834 5834 5835 5835 5835
5803 5803 5803 5803 5803 5803 5803 5803 5801 5800 5800 5798 5798 5799 5799 5800 5801 5801 5802 5804 5805 5807 5808 5809 5810 5811 5810 5808 5806 5806 5808 5809 5809 5809 5808 5807 5807 5806 5807 5808 5808 5808 5808 5808 5808 5808 5807 5807 5807 5808 5807 5807 5807 5808 5809 5810 5811 5812 5813 5814 5815 5817 5817 5818 5818 5819 5821 5823 5823 5824 5825 5825 5826 5827 5827 5828 5829 5830 5831 5831 5832 5833 5834 5834 5834
5800 5800 5800 5801 5802 5802 5803 5803 5800 5798 5798 5797 5797 5798 5797 5797 5799 5799 5800 5802 5804 5806 5807 5808 5809 5811 5810 5808 5806 5804 5806 5807 5807 5807 5805 5804 5805 5804 5804 5805 5805 5806 5806 5806 5806 5806 5805 5805 5806 5806 5806 5806 5806 5806 5807 5808 5809 5810 5811 5812 5813 5814 5815 5816 5817 5817 5820 5821 5822 5822 5823 5824 5825 5826 5826 5827 5828 5829 5830 5830 5830 5831 5832 5833 5833
5798 5798 5798 5799 5799 5800 5802 5802 5801 5797 5795 5795 5795 5796 5796 5794 5796 5796 5798 5801 5802 5804 5806 5807 5808 5809 5809 5807 5806 5805 5805 5805 5805 5805 5803 5802 5803 5803 5802 5801 5802 5803 5803 5804 5804 5804 5804 5804 5805 5805 5805 5805 5805 5805 5805 5806 5807 5807 5809 5809 5811 5812 5813 5815 5815 5816 5818 5820 5820 5821 5822 5822 5823 5824 5825 5826 5827 5827 5828 5828 5829 5829 5830 5831 5832
5796 5796 5796 5796 5797 5798 5800 5800 5800 5797 5796 5795 5793 5795 5795 5794 5795 5795 5797 5799 5801 5803 5805 5807 5807 5807 5806 5805 5805 5804 5804 5804 5804 5804 5804 5803 5802 5801 5801 5800 5800 5800 5801 5802 5802 5803 5803 5804 5803 5803 5803 5803 5803 5804 5804 5804 5805 5806 5807 5808 5808 5810 5811 5812 5813 5814 5816 5817 5819 5820 5820 5821 5822 5823 5824 5824 5825 5826 5826 5827 5827 5828 5828 5829 5830
5795 5795 5795 5795 5795 5796 5797 5798 5797 5796 5795 5794 5792 5793 5794 5794 5795 5796 5797 5799 5800 5802 5804 5806 5806 5806 5805 5803 5803 5803 5803 5803 5803 5803 5803 5803 5802 5801 5801 5801 5801 5801 5802 5801 5802 5803 5803 5803 5802 5802 5802 5802 5802 5803 5803 5803 5803 5804 5805 5806 5807 5807 5808 5810 5811 5812 5813 5815 5816 5817 5818 5819 5820 5821 5821 5822 5823 5824 5824 5825 5825 5826 5827 5828 5828
5793 5793 5793 5793 5793 5794 5795 5796 5796 5795 5794 5793 5792 5792 5793 5793 5794 5796 5796 5797 5798 5800 5801 5802 5804 5804 5803 5801 5801 5801 5802 5802 5802 5802 5802 5802 5802 5800 5800 5801 5801 5802 5803 5802 5802 5802 5802 5801 5801 5801 5801 5801 5801 5802 5802 5802 5803 5803 5804 5805 5806 5806 5807 5808 5809 5810 5812 5813 5814 5815 5816 5817 5818 5818 5819 5820 5821 5822 5822 5823 5823 5824 5825 5826 5826
5792 5791 5792 5791 5792 5792 5792 5793 5794 5793 5793 5793 5792 5792 5793 5793 5793 5794 5794 5794 5795 5797 5799 5800 5801 5801 5799 5798 5798 5800 5801 5801 5801 5802 5801 5801 5802 5801 5800 5801 5801 5802 5802 5802 5801 5801 5801 5800 5800 5800 5800 5800 5800 5800 5801 5801 5802 5803 5804 5805 5806 5807 5807 5807 5808 5809 5810 5810 5811 5813 5814 5814 5815 5816 5817 5818 5819 5820 5820 5821 5821 5822 5823 5823 5824
5790 5790 5790 5790 5790 5790 5790 5791 5791 5791 5791 5791 5790 5790 5791 5791 5792 5792 5791 5791 5793 5795 5797 5798 5799 5799 5797 5796 5797 5798 5800 5800 5800 5801 5801 5801 5801 5801 5800 5800 5800 5800 5801 5800 5800 5800 5799 5799 5798 5799 5799 5799 5799 5800 5800 5800 5801 5802 5803 5804 5805 5806 5806 5806 5806 5807 5808 5809 5810 5810 5811 5812 5813 5814 5815 5816 5817 5817 5818 5819 5819 5820 5820 5821 5821
5789 5788 5788 5789 5789 5788 5789 5789 5788 5789 5789 5789 5789 5789 5789 5789 5789 5789 5789 5789 5790 5793 5795 5796 5797 5796 5794 5794 5795 5797 5798 5798 5798 5799 5800 5800 5800 5799 5799 5799 5798 5798 5800 5799 5799 5799 5798 5798 5798 5798 5798 5798 5799 5799 5799 5800 5800 5801 5802 5803 5803 5804 5804 5804 5804 5805 5807 5807 5808 5808 5809 5811 5812 5812 5813 5814 5815 5816 5816 5816 5816 5817 5817 5818 5819
5788 5787 5787 5787 5787 5787 5787 5787 5787 5787 5788 5788 5788 5789 5788 5787 5787 5786 5786 5786 5788 5790 5792 5793 5793 5792 5790 5792 5794 5795 5796 5797 5798 5798 5798 5799 5799 5798 5798 5798 5798 5799 5800 5799 5798 5798 5798 5797 5797 5797 5797 5797 5798 5799 5799 5799 5800 5800 5801 5801 5802 5803 5803 5803 5804 5804 5805 5806 5807 5807 5807 5809 5810 5811 5812 5812 5813 5813 5813 5813 5813 5814 5814 5815 5816
5787 5786 5786 5786 5786 5786 5786 5787 5787 5787 5787 5787 5787 5787 5785 5784 5784 5783 5784 5784 5785 5787 5789 5790 5790 5789 5789 5791 5793 5794 5795 5796 5797 5797 5797 5797 5798 5798 5798 5797 5798 5798 5799 5799 5798 5798 5797 5796 5796 5796 5796 5797 5797 5798 5799 5799 5799 5800 5800 5801 5802 5802 5802 5802 5803 5803 5803 5804 5805 5806 5806 5807 5808 5809 5810 5811 5811 5811 5810 5810 5810 5810 5811 5812 5813
5784 5784 5784 5784 5785 5785 5786 5786 5786 5786 5786 5785 5784 5784 5781 5779 5780 5780 5781 5782 5783 5785 5786 5787 5788 5789 5791 5792 5793 5794 5795 5795 5795 5795 5796 5796 5797 5797 5797 5796 5797 5798 5798 5798 5798 5796 5796 5795 5795 5795 5796 5796 5797 5797 5798 5799 5799 5799 5800 5801 5801 5801 5801 5801 5802 5802 5802 5802 5803 5804 5805 5805 5806 5807 5808 5808 5809 5808 5807 5807 5807 5808 5808 5809 5810
5782 5781 5781 5782 5782 5784 5785 5786 5785 5784 5783 5784 5783 5783 5781 5778 5778 5778 5780 5781 5781 5783 5784 5786 5788 5789 5790 5791 5792 5793 5793 5794 5794 5794 5795 5795 5796 5797 5796 5795 5795 5797 5797 5796 5795 5795 5795 5795 5795 5795 5795 5796 5797 5797 5798 5798 5798 5799 5799 5800 5800 5801 5801 5800 5801 5801 5801 5801 5802 5803 5803 5803 5804 5804 5806 5806 5806 5805 5803 5803 5805 5806 5806 5806 5807
5779 5779 5779 5779 5780 5783 5785 5785 5785 5782 5781 5782 5782 5781 5780 5778 5777 5777 5780 5780 5781 5783 5785 5786 5787 5787 5788 5789 5790 5791 5792 5793 5794 5794 5794 5794 5795 5796 5795 5794 5793 5794 5795 5794 5793 5794 5795 5795 5794 5794 5795 5795 5796 5797 5797 5798 5798 5799 5799 5799 5800 5800 5800 5800 5800 5800 5800 5800 5801 5801 5802 5802 5802 5803 5803 5804 5803 5802 5800 5801 5802 5804 5804 5804 5804
5776 5776 5775 5777 5780 5783 5785 5785 5784 5782 5780 5781 5780 5778 5778 5778 5777 5776 5778 5780 5780 5782 5784 5785 5786 5786 5788 5788 5789 5790 5791 5792 5792 5793 5793 5793 5794 5794 5794 5793 5792 5792 5793 5792 5792 5793 5794 5794 5794 5794 5795 5795 5795 5796 5797 5797 5797 5798 5798 5798 5799 5799 5799 5799 5799 5799 5799 5799 5800 5800 5800 5801 5801 5802 5802 5802 5801 5799 5798 5799 5800 5801 5802 5802 5802
5773 5775 5774 5777 5781 5783 5785 5784 5782 5781 5780 5779 5777 5775 5776 5777 5777 5777 5778 5779 5780 5781 5782 5783 5784 5785 5787 5787 5788 5788 5789 5790 5791 5791 5792 5792 5793 5793 5792 5791 5790 5790 5792 5791 5791 5792 5793 5793 5793 5793 5794 5794 5794 5796 5797 5796 5796 5796 5797 5797 5798 5798 5798 5798 5798 5798 5798 5798 5798 5799 5799 5800 5800 5801 5801 5800 5800 5797 5795 5797 5798 5798 5799 5799 5799
5772 5775 5776 5778 5780 5782 5784 5783 5780 5779 5779 5777 5775 5774 5774 5775 5776 5777 5778 5778 5779 5780 5781 5782 5782 5784 5785 5786 5786 5787 5787 5788 5789 5789 5790 5791 5792 5792 5791 5789 5788 5788 5790 5790 5790 5791 5791 5791 5792 5792 5793 5794 5794 5794 5795 5795 5795 5795 5796 5796 5796 5797 5797 5797 5796 5797 5797 5797 5797 5798 5798 5798 5799 5799 5800 5799 5799 5797 5794 5794 5795 5796 5796 5795 5795
5773 5775 5777 5778 5778 5779 5780 5779 5777 5776 5776 5776 5774 5773 5773 5774 5775 5776 5777 5778 5779 5779 5780 5781 5781 5782 5783 5784 5785 5786 5786 5786 5787 5787 5788 5789 5790 5791 5790 5789 5788 5786 5787 5789 5788 5789 5789 5790 5791 5791 5792 5793 5794 5794 5793 5793 5793 5793 5794 5794 5795 5796 5795 5795 5795 5795 5796 5796 5796 5796 5797 5797 5797 5797 5798 5798 5797 5796 5794 5792 5792 5793 5793 5792 5791
5773 5773 5774 5774 5773 5774 5775 5776 5775 5773 5775 5775 5774 5773 5773 5773 5775 5776 5777 5778 5778 5779 5779 5780 5781 5781 5782 5782 5783 5784 5785 5785 5786 5786 5787 5788 5788 5789 5788 5788 5788 5785 5785 5787 5787 5787 5788 5788 5789 5790 5791 5792 5793 5793 5793 5793 5792 5791 5792 5793 5794 5794 5794 5794 5794 5794 5794 5794 5795 5795 5795 5795 5795 5796 5796 5796 5795 5794 5793 5792 5791 5792 5791 5789 5788
5769 5768 5768 5769 5771 5772 5773 5775 5775 5774 5776 5776 5773 5774 5775 5775 5776 5777 5777 5777 5778 5778 5778 5778 5779 5780 5780 5780 5781 5782 5783 5784 5784 5785 5785 5786 5786 5786 5786 5786 5786 5783 5783 5785 5785 5785 5786 5787 5788 5788 5789 5790 5791 5791 5792 5792 5791 5790 5790 5791 5792 5792 5793 5793 5793 5792 5792 5793 5793 5793 5794 5794 5794 5794 5794 5794 5794 5793 5792 5791 5791 5791 5790 5787 5785
5767 5765 5766 5768 5770 5772 5772 5773 5772 5773 5775 5774 5772 5774 5775 5776 5776 5777 5777 5777 5777 5776 5776 5776 5777 5778 5778 5779 5779 5780 5781 5782 5783 5783 5784 5784 5783 5784 5785 5785 5784 5783 5782 5782 5783 5784 5784 5785 5787 5787 5787 5788 5789 5789 5790 5790 5790 5790 5789 5790 5790 5790 5791 5791 5791 5790 5791 5791 5791 5792 5792 5792 5792 5792 5792 5792 5792 5791 5791 5791 5790 5789 5789 5786 5784
5766 5765 5766 5768 5768 5768 5769 5769 5769 5770 5772 5772 5772 5773 5774 5775 5775 5775 5775 5775 5775 5775 5774 5775 5775 5776 5776 5777 5778 5778 5779 5780 5781 5781 5782 5782 5782 5783 5783 5784 5784 5783 5782 5781 5782 5783 5784 5784 5786 5786 5787 5787 5788 5788 5788 5789 5789 5789 5788 5788 5789 5789 5789 5789 5789 5789 5789 5789 5789 5789 5790 5790 5790 5790 5790 5790 5790 5790 5789 5789 5789 5788 5787 5786 5784
5766 5767 5768 5768 5768 5767 5768 5768 5767 5767 5769 5770 5771 5772 5773 5773 5773 5773 5773 5773 5773 5773 5773 5773 5773 5774 5775 5776 5776 5777 5777 5778 5779 5779 5780 5780 5781 5781 5782 5782 5782 5782 5781 5781 5781 5782 5783 5785 5785 5785 5786 5787 5787 5787 5787 5788 5788 5789 5787 5786 5786 5787 5788 5787 5787 5787 5786 5787 5787 5787 5787 5787 5787 5788 5788 5788 5788 5788 5788 5787 5787 5787 5786 5785 5784
5765 5765 5767 5768 5768 5768 5769 5769 5767 5766 5767 5768 5769 5770 5771 5771 5771 5771 5771 5771 5772 5772 5772 5772 5772 5772 5773 5774 5775 5775 5776 5777 5777 5778 5778 5779 5779 5780 5780 5781 5781 5781 5780 5780 5780 5781 5782 5784 5784 5784 5785 5786 5786 5786 5786 5787 5787 5788 5788 5786 5785 5785 5786 5786 5786 5785 5784 5784 5785 5785 5785 5785 5785 5785 5785 5786 5786 5786 5786 5786 5786 5785 5784 5784 5784
5762 5762 5763 5765 5766 5767 5768 5768 5768 5767 5768 5767 5767 5768 5769 5770 5770 5770 5770 5771 5771 5771 5771 5771 5771 5771 5772 5772 5773 5774 5774 5775 5776 5776 5777 5778 5778 5779 5779 5779 5779 5779 5779 5778 5779 5779 5781 5782 5783 5783 5784 5785 5785 5785 5785 5785 5786 5786 5786 5787 5785 5784 5784 5784 5783 5783 5781 5782 5783 5783 5783 5783 5783 5783 5783 5783 5783 5784 5784 5784 5784 5783 5783 5782 5782
5760 5761 5762 5763 5764 5765 5766 5766 5765 5766 5766 5766 5766 5767 5768 5769 5769 5769 5770 5770 5770 5771 5771 5770 5770 5771 5771 5772 5772 5773 5773 5773 5774 5774 5775 5776 5777 5777 5777 5778 5778 5778 5778 5778 5778 5778 5779 5780 5781 5781 5782 5783 5783 5783 5783 5783 5784 5784 5784 5785 5784 5783 5783 5782 5781 5780 5780 5780 5781 5780 5781 5780 5780 5780 5780 5781 5780 5780 5780 5781 5781 5781 5781 5780 5780
5761 5762 5763 5765 5766 5766 5766 5766 5765 5765 5765 5765 5765 5766 5766 5767 5768 5768 5769 5769 5769 5769 5769 5769 5769 5770 5771 5772 5772 5772 5772 5772 5772 5773 5773 5774 5774 5775 5775 5776 5776 5776 5777 5777 5777 5777 5777 5778 5778 5779 5780 5781 5781 5781 5782 5782 5782 5782 5782 5782 5782 5782 5781 5781 5780 5779 5779 5779 5779 5779 5778 5778 5778 5778 5778 5778 5778 5778 5778 5778 5778 5778 5778 5778 5778